Flag for U.S.A. Weather past 2 weeks in Racine, Wisconsin, U.S.A.

Now
36 °F

Clear.


Feels Like: 28 °F
Forecast: 35 / 49 °F
Wind: 10 mph from North

Location: Batten International Airport

Current Time: Apr 26, 2015 at 5:15:24 AM

Latest Report: Apr 26, 2015 at 4:53 AM


Visibility: 10 mi

Pressure: 29.98 "Hg

Humidity: 85%

Dew point: 32 °F

Location of RacineLocation

Historic Weather in Racine — Graph

°F

Racine temperature yesterday

Maximum temperature yesterday: 43 °F (at 9:53 AM)
Minimum temperature yesterday: 39 °F (at 5:53 PM)
Average temperature yesterday: 40 °F

Past Weeks' High & Low Weather Summary

 TemperatureHumidityPressure
High74 °F (Apr 17, 11:53 AM)97% (Apr 20, 3:53 AM)30.35 "Hg (Apr 20, 3:53 AM)
Low31 °F (Apr 23, 2:53 AM)17% (Apr 13, 4:53 PM)29.22 "Hg (Apr 20, 7:53 AM)
Average47 °F60%29.97 "Hg
* Reported Apr 11 3:53 AM — Apr 26 3:53 AM, Racine, Weather by CustomWeather, © 2015

Note: Actual official high and low records may vary slightly from our data, if they occured in-between our weather recording intervals... More about our weather records

Advertising

Racine weather history for previous 24 hours

 ConditionsComfort  
Time TempWeatherWind HumidityBarometerVisibility
3:53 AM
Sun, Apr 26
37 °FClear.9 mph76%29.97 "Hg10 mi
2:53 AM36 °FClear.8 mph73%29.96 "Hg10 mi
1:53 AM38 °FClear.9 mph73%29.94 "Hg10 mi
12:53 AM38 °FClear.9 mph73%29.93 "Hg10 mi
11:53 PM
Sat, Apr 25
40 °FClear.13 mph65%29.91 "Hg10 mi
10:53 PM40 °FClear.17 mph63%29.90 "Hg10 mi
9:53 PM40 °FMostly cloudy.17 mph65%29.89 "Hg10 mi
8:53 PM40 °FOvercast.16 mph65%29.89 "Hg10 mi
7:53 PM39 °FOvercast.15 mph62%29.89 "Hg10 mi
6:53 PM39 °FOvercast.17 mph67%29.87 "Hg10 mi
5:53 PM39 °FOvercast.17 mph73%29.86 "Hg10 mi
4:53 PM40 °FMore clouds than sun.18 mph73%29.85 "Hg10 mi
3:53 PM41 °FOvercast.16 mph70%29.83 "Hg10 mi
2:53 PM40 °FOvercast.17 mph73%29.85 "Hg10 mi
1:53 PM41 °FOvercast.10 mph74%29.87 "Hg10 mi
12:53 PM41 °FOvercast.12 mph76%29.86 "Hg10 mi
11:53 AM42 °FOvercast.12 mph79%29.85 "Hg10 mi
10:53 AM42 °FMostly cloudy.12 mph82%29.85 "Hg10 mi
9:53 AM43 °FOvercast.14 mph79%29.86 "Hg10 mi
8:53 AM41 °FOvercast.10 mph86%29.88 "Hg9 mi
7:53 AM41 °FOvercast.12 mph82%29.87 "Hg10 mi
6:53 AM41 °FOvercast.10 mph82%29.88 "Hg9 mi
5:53 AM41 °FOvercast.12 mph82%29.87 "Hg10 mi
Weather by CustomWeather, © 2015

See weather overviewHow to use our weather pages